Stündliche Wetter Abrosimovo

Heute, 21 Juni, Montag

Zeit Temperatur Niederschläge Wind Luftdruck Luftfeuchtigkeit
00:00 +20°C° 0 mm 1 m/S 745 mmHg 76%
01:00 +20°C° 0 mm 1 m/S 745 mmHg 76%
02:00 +20°C° 0 mm 1 m/S 745 mmHg 77%
03:00 +21°C° 0 mm 1 m/S 745 mmHg 76%
04:00 +22°C° 0 mm 1 m/S 745 mmHg 75%
05:00 +23°C° 0 mm 1 m/S 745 mmHg 74%
06:00 +25°C° 0 mm 1 m/S 745 mmHg 67%
07:00 +27°C° 0 mm 1 m/S 745 mmHg 60%
08:00 +29°C° 0 mm 1 m/S 745 mmHg 53%
09:00 +30°C° 0 mm 1 m/S 745 mmHg 49%
10:00 +31°C° 0 mm 1 m/S 745 mmHg 44%
11:00 +32°C° 0 mm 1 m/S 745 mmHg 40%
12:00 +32°C° 0 mm 1 m/S 745 mmHg 39%
13:00 +32°C° 0 mm 2 m/S 745 mmHg 39%
14:00 +34°C° 0 mm 2 m/S 745 mmHg 38%
15:00 +32°C° 0 mm 2 m/S 745 mmHg 43%
16:00 +31°C° 0 mm 2 m/S 744 mmHg 48%
17:00 +30°C° 0 mm 2 m/S 744 mmHg 53%
18:00 +29°C° 0 mm 2 m/S 744 mmHg 59%
19:00 +27°C° 0 mm 2 m/S 744 mmHg 66%
20:00 +26°C° 0 mm 2 m/S 745 mmHg 73%
21:00 +24°C° 0.2 mm 2 m/S 745 mmHg 77%
22:00 +23°C° 0.2 mm 1 m/S 745 mmHg 81%
23:00 +22°C° 0.2 mm 1 m/S 745 mmHg 85%

Morgen, 22 Juni, Dienstag

Zeit Temperatur Niederschläge Wind Luftdruck Luftfeuchtigkeit
00:00 +21°C° 0 mm 1 m/S 745 mmHg 86%
01:00 +21°C° 0 mm 1 m/S 745 mmHg 87%
02:00 +20°C° 0 mm 1 m/S 745 mmHg 89%
03:00 +21°C° 0.1 mm 1 m/S 745 mmHg 88%
04:00 +21°C° 0.1 mm 1 m/S 746 mmHg 87%
05:00 +22°C° 0.1 mm 1 m/S 746 mmHg 86%
06:00 +24°C° 0 mm 1 m/S 746 mmHg 78%
07:00 +25°C° 0 mm 2 m/S 746 mmHg 69%
08:00 +27°C° 0 mm 2 m/S 746 mmHg 61%
09:00 +28°C° 0 mm 2 m/S 746 mmHg 56%
10:00 +29°C° 0 mm 2 m/S 746 mmHg 51%
11:00 +31°C° 0 mm 3 m/S 746 mmHg 46%
12:00 +31°C° 0 mm 3 m/S 746 mmHg 43%
13:00 +33°C° 0 mm 3 m/S 746 mmHg 41%
14:00 +33°C° 0 mm 3 m/S 746 mmHg 38%
15:00 +33°C° 0 mm 3 m/S 745 mmHg 41%
16:00 +32°C° 0 mm 2 m/S 745 mmHg 43%
17:00 +31°C° 0 mm 2 m/S 745 mmHg 46%
18:00 +29°C° 0 mm 2 m/S 745 mmHg 55%
19:00 +27°C° 0 mm 2 m/S 744 mmHg 64%
20:00 +25°C° 0 mm 2 m/S 744 mmHg 74%
21:00 +24°C° 0 mm 2 m/S 744 mmHg 76%
22:00 +23°C° 0 mm 2 m/S 745 mmHg 78%
23:00 +21°C° 0 mm 2 m/S 745 mmHg 80%

übermorgen, 23 Juni, Mittwoch

Zeit Temperatur Niederschläge Wind Luftdruck Luftfeuchtigkeit
00:00 +21°C° 0 mm 2 m/S 745 mmHg 81%
01:00 +20°C° 0 mm 2 m/S 745 mmHg 81%
02:00 +20°C° 0 mm 2 m/S 745 mmHg 82%
03:00 +20°C° 0 mm 2 m/S 745 mmHg 80%
04:00 +21°C° 0 mm 2 m/S 745 mmHg 78%
05:00 +23°C° 0 mm 2 m/S 746 mmHg 76%
06:00 +24°C° 0 mm 2 m/S 746 mmHg 70%
07:00 +26°C° 0 mm 2 m/S 746 mmHg 64%
08:00 +28°C° 0 mm 3 m/S 746 mmHg 58%
09:00 +29°C° 0 mm 3 m/S 746 mmHg 54%
10:00 +31°C° 0 mm 3 m/S 746 mmHg 49%
11:00 +33°C° 0 mm 3 m/S 746 mmHg 44%
12:00 +34°C° 0 mm 3 m/S 746 mmHg 41%
13:00 +35°C° 0 mm 3 m/S 746 mmHg 38%
14:00 +35°C° 0 mm 3 m/S 746 mmHg 35%
15:00 +35°C° 0 mm 3 m/S 745 mmHg 37%
16:00 +35°C° 0 mm 3 m/S 745 mmHg 40%
17:00 +34°C° 0 mm 3 m/S 745 mmHg 42%
18:00 +31°C° 0 mm 2 m/S 745 mmHg 51%
19:00 +29°C° 0 mm 2 m/S 745 mmHg 59%
20:00 +26°C° 0 mm 2 m/S 745 mmHg 68%
21:00 +25°C° 0 mm 2 m/S 745 mmHg 69%
22:00 +24°C° 0 mm 2 m/S 745 mmHg 70%
23:00 +24°C° 0 mm 2 m/S 745 mmHg 70%

24 Juni, Donnerstag

Zeit Temperatur Niederschläge Wind Luftdruck Luftfeuchtigkeit
00:00 +23°C° 0 mm 2 m/S 745 mmHg 73%
01:00 +23°C° 0 mm 2 m/S 745 mmHg 75%
02:00 +21°C° 0 mm 2 m/S 745 mmHg 77%
03:00 +23°C° 0 mm 2 m/S 745 mmHg 77%
04:00 +23°C° 0 mm 2 m/S 745 mmHg 77%
05:00 +24°C° 0 mm 2 m/S 745 mmHg 77%
06:00 +26°C° 0 mm 2 m/S 745 mmHg 69%
07:00 +28°C° 0 mm 2 m/S 745 mmHg 61%
08:00 +30°C° 0 mm 2 m/S 745 mmHg 53%
09:00 +31°C° 0 mm 2 m/S 745 mmHg 48%
10:00 +33°C° 0 mm 3 m/S 745 mmHg 42%
11:00 +35°C° 0 mm 3 m/S 745 mmHg 37%
12:00 +35°C° 0 mm 3 m/S 744 mmHg 36%
13:00 +36°C° 0 mm 3 m/S 744 mmHg 34%
14:00 +36°C° 0 mm 3 m/S 744 mmHg 33%
15:00 +36°C° 0 mm 3 m/S 744 mmHg 35%
16:00 +35°C° 0 mm 2 m/S 743 mmHg 38%
17:00 +35°C° 0 mm 2 m/S 743 mmHg 41%
18:00 +31°C° 0.2 mm 2 m/S 743 mmHg 52%
19:00 +28°C° 0.2 mm 3 m/S 743 mmHg 64%
20:00 +24°C° 0.2 mm 3 m/S 743 mmHg 76%
21:00 +22°C° 0.1 mm 3 m/S 743 mmHg 80%
22:00 +21°C° 0.1 mm 3 m/S 743 mmHg 85%
23:00 +20°C° 0.1 mm 2 m/S 744 mmHg 89%

25 Juni, Freitag

Zeit Temperatur Niederschläge Wind Luftdruck Luftfeuchtigkeit
00:00 +19°C° 0 mm 2 m/S 743 mmHg 91%
01:00 +20°C° 0 mm 1 m/S 743 mmHg 92%
02:00 +19°C° 0 mm 1 m/S 743 mmHg 94%
03:00 +20°C° 0 mm 1 m/S 743 mmHg 91%
04:00 +20°C° 0 mm 2 m/S 743 mmHg 89%
05:00 +20°C° 0 mm 2 m/S 743 mmHg 87%
06:00 +23°C° 0 mm 2 m/S 742 mmHg 77%
07:00 +25°C° 0 mm 2 m/S 742 mmHg 68%
08:00 +27°C° 0 mm 2 m/S 742 mmHg 58%
09:00 +28°C° 0 mm 2 m/S 742 mmHg 54%
10:00 +30°C° 0 mm 2 m/S 742 mmHg 49%
11:00 +31°C° 0 mm 3 m/S 742 mmHg 45%
12:00 +33°C° 0 mm 3 m/S 742 mmHg 43%
13:00 +33°C° 0 mm 3 m/S 741 mmHg 41%
14:00 +34°C° 0 mm 3 m/S 741 mmHg 39%
15:00 +34°C° 0 mm 2 m/S 740 mmHg 40%
16:00 +32°C° 0 mm 2 m/S 740 mmHg 42%
17:00 +32°C° 0 mm 2 m/S 739 mmHg 43%
18:00 +28°C° 1.1 mm 2 m/S 739 mmHg 60%
19:00 +25°C° 1.1 mm 3 m/S 739 mmHg 76%
20:00 +20°C° 1.1 mm 4 m/S 740 mmHg 93%
21:00 +19°C° 0 mm 3 m/S 739 mmHg 94%
22:00 +19°C° 0 mm 2 m/S 739 mmHg 95%
23:00 +19°C° 0 mm 1 m/S 739 mmHg 96%

26 Juni, Samstag

Zeit Temperatur Niederschläge Wind Luftdruck Luftfeuchtigkeit
00:00 +19°C° 0 mm 1 m/S 739 mmHg 97%
01:00 +19°C° 0 mm 1 m/S 739 mmHg 97%
02:00 +19°C° 0 mm 1 m/S 738 mmHg 97%
03:00 +19°C° 0 mm 1 m/S 738 mmHg 96%
04:00 +19°C° 0 mm 1 m/S 738 mmHg 95%
05:00 +20°C° 0 mm 1 m/S 738 mmHg 94%
06:00 +22°C° 0 mm 1 m/S 738 mmHg 85%
07:00 +23°C° 0 mm 2 m/S 738 mmHg 77%
08:00 +25°C° 0 mm 2 m/S 738 mmHg 68%
09:00 +27°C° 0 mm 2 m/S 737 mmHg 63%
10:00 +28°C° 0 mm 2 m/S 737 mmHg 57%
11:00 +30°C° 0 mm 3 m/S 737 mmHg 51%
12:00 +31°C° 0 mm 3 m/S 736 mmHg 49%
13:00 +33°C° 0 mm 3 m/S 736 mmHg 46%
14:00 +33°C° 0 mm 3 m/S 735 mmHg 43%
15:00 +33°C° 0 mm 3 m/S 735 mmHg 45%
16:00 +32°C° 0 mm 4 m/S 734 mmHg 46%
17:00 +32°C° 0 mm 4 m/S 734 mmHg 48%
18:00 +28°C° 0.2 mm 4 m/S 733 mmHg 58%
19:00 +26°C° 0.2 mm 4 m/S 733 mmHg 68%
20:00 +23°C° 0.2 mm 4 m/S 733 mmHg 79%
21:00 +21°C° 0.7 mm 3 m/S 733 mmHg 85%
22:00 +20°C° 0.7 mm 2 m/S 733 mmHg 91%
23:00 +19°C° 0.7 mm 1 m/S 733 mmHg 97%
Mehr zeigen

Wir brauchen deine Erlaubnis

Meteoprog und unser Service Anbieter werden persönliche Daten aufbewahren, so wie Cookies, Geräte Bezeichnung oder ähnliche Technologien von deinem Gerät und Prozess, so wie Persönliche Daten Inhalte und Werbungen, genauso wie social Media und den Verkehr zu analysieren.

  • Aufbewahrung und/oder Zugang zu deiner Geräte Informationen.

    Cookies, Geräte Bezeichnung oder andere Informationen, können aufbewahrt oder Zugang zu deinem Gerät erhalten, für den Grund, der oben angegeben wird.

  • Personalisierte Werbung und Inhalte, Messungen, Einblick in das Publikum und Produkt Entwicklung.

    Werbungen und Inhalte können personalisiert werden, basierend auf ein Profil. Mehr Daten können besser personalisierte Werbungen und Inhalte hinzufügen. Werbung und Inhalte können gezeigt und gemessen werden. Einblicke über das Publikum, welche die Werbung gesehen haben und den Inhalt, können abgeleitet werden. So wie Daten können genutzt werden, um es zu verbessern oder die Benutzer Erfahrung zu verbessern das System und die Software.

Wenn du “Ich stimme zu” klickst, erlaubst du uns, die Cookies zu benutzen die Geräte Bezeichnung, den Web oder ähnliche Technologien zu benutzen. Deine Settings, können in deinem Gerät bei deinem Browser geändert werden.

Für den bestimmten Zweck, berechtigten Interessen beruhen darauf, mehr als auf den Inhalt. Du kannst mehr darüber in unseren Privaten und Cookie Politik lesen.